STARLINK-38197, 100171

Orbit data source: Space-Track

STARLINK-38197, 100171 is a payload satellite owned by SpaceX/Seattle (US) in SSO that was launched on Sat, 25 Jul 2026 UTC launched from the Air Force Western Test Range (AFWTR). Payload-class satellites include a variety of spacecraft equipped with specific instruments for various scientific and technological missions. These include communications satellites like Starlink; space stations such as the ISS; scientific satellites like the Hubble; Earth observation satellites from companies like Planet Labs, Umbra, and HawkEye 360; GPS; miniature CubeSats for education and research; and military/defense satellites.

Loading next visibility...
Identifier
100171, 2026-171Z
Orbit
SSO
Country
Flag of USUS
Related business
Manufacturer
SpaceX/Seattle
Mission
Operational spacecraft
Bus & Motor
STARLINK V2MO, Unknown motor
Mass
575 kg wet, ~530 kg dry
Launch date (UTC)
2026-07-25 (2 weeks ago)
Launch vehicle
Unknown
Launch site
Air Force Western Test Range (AFWTR)
Object type
Payload
Rocket body
Debris
Shape & HBR
BOX + PAN, 17.7 m
Radar Cross Section
RCS unknown

Expand to show TLE details & history
Last TLE update: 12 hours ago

TLE from 12 hours ago
0 STARLINK-38197
1 A0171U 26171Z   26219.90415207  .00111715  00000-0  57553-3 0  9998
2 A0171  97.2849 251.4262 0000930  96.4179 263.7196 15.80854410  2114
Epoch: 2026-08-07T21:41Z
TLE epoch observation values (Epoch: 2026-08-07T21:41:58.738Z)
Latitude
0.00003°
Longitude
-30.49171°
Altitude
331.267 km
Speed
7.71 km/s
True Right ascension
16h 45m 42s
True Declination
0° 00' 00"
Sunlit
Object was in full shadow at epoch
Visualization orbit readout
Latitude
Unknown
Longitude
Unknown
Altitude
Unknown
Speed
Unknown
Apparent Right ascension
Unknown
Apparent Declination
Unknown
Sunlit
N/A
Visualization observer readout
Local Sidereal Time
00:00:24
Azimuth
Unknown
Elevation
Unknown
Doppler factor
Unknown
Orbital elements
Apogee altitude
325.527 km
Perigee altitude
324.28 km
Semi-major axis
6,703.04 km
Eccentricity
0.00009
Inclination
97.2849°
RAAN
251.4262°
Arg. of periapsis
96.4179°
True anomaly
263.70901°
Mean anomaly
263.7196°
Eccentric anomaly
263.7143°
Mean motion
3.9549 °/min
Orbital period
91.03 mins
BSTAR
0.00057553
Loading maneuver chart data...
Computing Atmospheric mass density...
Loading historical data...
Loading historical data...
Loading historical data...
Loading historical data...
Loading historical data...
Loading historical data...
Loading historical data...

Documentation

Showing up to 5 results
|